Location: Roland
(31.1349°N, 85.4372°W)
Time: 03:32:21
(UTC+00:00)

Courier 1B - Pass Details

Date: 28 April 2021
Orbit: 962 x 1209 km, 28.3° (Epoch: 07 May)

Event Time Altitude Azimuth Distance (km) Brightness Sun altitude
Rises 11:41:40 0° 200° (SSW) 4,079 10.4 7.9°
Reaches altitude 10° 11:46:31 10° 174° (S) 3,086 10.1 8.9°
Maximum altitude 11:49:42 13° 149° (SSE) 2,836 10.3 9.5°
Drops below altitude 10° 11:52:50 10° 124° (SE) 3,028 10.9 10.2°
Sets 11:57:27 0° 98° (E) 3,934 12.2 11.2°
